AV357 Weather Reports


time (UTC)temp
C
wind
direction
speed
KPH
gust
KPH
rain 1hr
cm
rain 24hr
cm
rain mn
cm
humidity
%
barometer
mb
20260507074003 10 81 0.0 3.2 0.00 0.00 0.00 81 1024.5
20260507073503 10 94 0.0 1.6 0.00 0.00 0.00 83 1024.4
20260507073003 10 79 0.0 1.6 0.00 0.00 0.00 82 1024.6
20260507072503 10 77 0.0 3.2 0.00 0.00 0.00 81 1024.6
20260507072003 10 80 0.0 3.2 0.00 0.00 0.00 80 1024.6
20260507071504 10 0 0.0 0.0 0.00 0.00 0.00 78 1024.4
20260507071003 10 0 0.0 0.0 0.00 0.00 0.00 78 1024.6
20260507070503 10 0 0.0 0.0 0.00 0.00 0.00 77 1024.5
20260507070007 10 292 0.0 1.6 0.00 0.00 0.00 78 1024.4
20260507065503 10 293 0.0 1.6 0.00 0.00 0.00 79 1024.5
20260507065213 10 297 0.0 1.6 0.00 0.00 0.00 80 1024.4
20260507064503 9 73 1.6 3.2 0.00 0.00 0.00 83 1024.8
20260507064213 9 73 1.6 3.2 0.00 0.00 0.00 84 1024.9
20260507063503 10 69 0.0 3.2 0.00 0.00 0.00 83 1024.4
20260507063003 10 45 0.0 1.6 0.00 0.00 0.00 81 1024.2
20260507062503 9 303 0.0 1.6 0.00 0.00 0.00 82 1024.4
20260507062003 9 309 0.0 1.6 0.00 0.00 0.00 79 1024.4
20260507061503 10 58 0.0 1.6 0.00 0.00 0.00 79 1024.3
20260507061212 10 58 0.0 1.6 0.00 0.00 0.00 79 1024.3
20260507060503 11 49 0.0 1.6 0.00 0.00 0.00 76 1023.8
20260507060003 11 324 0.0 1.6 0.00 0.03 0.00 76 1023.9
20260507055713 10 318 0.0 1.6 0.00 0.03 0.00 76 1024.4
20260507055004 9 322 0.0 1.6 0.00 0.05 0.00 79 1024.1
20260507054503 10 37 0.0 1.6 0.00 0.05 0.00 76 1024.1
20260507054003 9 37 0.0 1.6 0.00 0.05 0.00 80 1024.2
20260507053713 8 40 0.0 1.6 0.00 0.05 0.00 80 1024.5
20260507053004 7 61 0.0 1.6 0.00 0.08 0.00 83 1024.5
20260507052503 7 291 0.0 3.2 0.00 0.08 0.00 85 1024.6
20260507052003 7 295 0.0 3.2 0.00 0.08 0.00 86 1024.6
20260507051503 7 309 0.0 1.6 0.00 0.08 0.00 85 1024.5
20260507051003 7 309 0.0 1.6 0.00 0.10 0.00 85 1024.4
20260507050503 7 298 0.0 1.6 0.00 0.10 0.00 85 1023.9
20260507050003 7 306 0.0 1.6 0.00 0.10 0.00 86 1024.4
20260507045503 7 307 0.0 1.6 0.00 0.10 0.00 88 1024.4
20260507045003 7 311 0.0 3.2 0.00 0.13 0.00 90 1024.5
20260507044503 6 310 1.6 3.2 0.00 0.15 0.00 90 1024.3
20260507044214 7 308 0.0 3.2 0.00 0.20 0.00 90 1024.4
20260507043503 7 0 0.0 0.0 0.00 0.33 0.00 92 1024.0
20260507043003 6 0 0.0 0.0 0.00 0.48 0.00 93 1024.1
20260507042503 6 291 0.0 1.6 0.00 0.61 0.00 93 1024.1
20260507042003 6 291 0.0 1.6 0.00 0.69 0.00 93 1024.1
20260507041503 6 0 0.0 0.0 0.00 0.76 0.00 92 1024.1
20260507041003 6 0 0.0 0.0 0.00 0.81 0.00 92 1024.1
20260507040503 6 0 0.0 0.0 0.00 0.84 0.00 92 1024.1
20260507040003 7 0 0.0 0.0 0.00 0.86 0.00 91 1024.0
20260507035503 6 0 0.0 0.0 0.00 0.89 0.00 91 1023.9
20260507035213 6 0 0.0 0.0 0.00 0.89 0.00 91 1024.0
20260507034503 6 0 0.0 0.0 0.00 0.94 0.00 91 1024.0
20260507034003 6 0 0.0 0.0 0.00 0.97 0.00 93 1024.0
20260507033503 7 0 0.0 0.0 0.00 1.02 0.00 93 1023.8
20260507033003 7 0 0.0 0.0 0.00 1.07 0.00 93 1023.8
20260507032503 7 0 0.0 0.0 0.00 1.07 0.00 93 1023.8
20260507032003 7 304 0.0 1.6 0.00 1.09 0.00 93 1023.8
20260507031503 7 304 0.0 1.6 0.00 1.09 0.00 93 1023.7
20260507031003 7 0 0.0 0.0 0.00 1.09 0.00 93 1023.7
20260507030503 7 74 0.0 1.6 0.00 1.09 0.00 93 1023.7
20260507030003 7 74 0.0 1.6 0.00 1.09 0.00 92 1023.8
20260507025503 7 73 0.0 1.6 0.00 1.09 0.00 92 1023.8
20260507025213 7 70 0.0 1.6 0.00 1.09 0.00 91 1023.4
20260507024503 7 310 0.0 1.6 0.00 1.09 0.00 89 1023.4
20260507024003 7 321 0.0 1.6 0.00 1.09 0.00 89 1023.6
20260507023503 7 25 0.0 1.6 0.00 1.09 0.00 90 1023.7
20260507023003 7 53 0.0 1.6 0.00 1.09 0.00 91 1023.6
20260507022503 7 39 0.0 1.6 0.00 1.09 0.00 88 1023.4
20260507022003 8 306 0.0 1.6 0.00 1.09 0.00 86 1023.6
20260507021503 8 302 0.0 1.6 0.00 1.09 0.00 87 1023.7
20260507021003 8 0 0.0 0.0 0.00 1.09 0.00 87 1023.6
20260507020503 8 0 0.0 0.0 0.00 1.09 0.00 87 1023.5
20260507020003 8 0 0.0 0.0 0.00 1.09 0.00 88 1023.7
20260507015503 8 0 0.0 0.0 0.00 1.09 0.00 88 1023.4
20260507015003 7 303 0.0 1.6 0.00 1.09 0.00 88 1023.5
20260507014503 7 301 1.6 3.2 0.00 1.09 0.00 89 1023.4
20260507014003 7 299 1.6 3.2 0.00 1.09 0.00 90 1023.6
20260507013503 7 296 0.0 1.6 0.00 1.09 0.00 91 1023.5
20260507013003 7 0 0.0 0.0 0.00 1.09 0.00 91 1023.3
20260507012503 7 0 0.0 0.0 0.00 1.09 0.00 92 1023.5
20260507012003 7 0 0.0 0.0 0.00 1.09 0.00 92 1023.3
20260507011503 7 55 0.0 1.6 0.00 1.09 0.00 92 1023.1
20260507011003 7 55 0.0 1.6 0.00 1.09 0.00 92 1023.3
20260507010714 7 57 0.0 1.6 0.00 1.09 0.00 91 1023.1
20260507010003 7 60 1.6 3.2 0.00 1.09 0.00 93 1023.4
20260507005503 7 62 0.0 3.2 0.00 1.09 0.00 92 1023.4
20260507005003 7 304 0.0 1.6 0.00 1.09 0.00 90 1023.2
20260507004503 7 295 1.6 1.6 0.00 1.09 0.00 88 1023.2
20260507004003 7 293 1.6 1.6 0.00 1.09 0.00 91 1023.3
20260507003713 7 295 0.0 1.6 0.00 1.09 0.00 91 1023.2
20260507003214 7 299 0.0 1.6 0.00 1.09 0.00 92 1023.0
20260507002503 8 40 0.0 1.6 0.00 1.09 0.00 92 1023.2
20260507002003 8 72 0.0 1.6 0.00 1.12 0.00 92 1023.0
20260507001503 8 0 0.0 0.0 0.00 1.12 0.00 91 1022.9
20260507001003 8 55 0.0 1.6 0.00 1.12 0.00 92 1022.8
20260507000503 8 58 0.0 1.6 0.00 1.14 0.00 92 1023.0
20260507000003 8 66 0.0 1.6 0.00 1.14 0.00 91 1022.6
20260506235713 8 0 0.0 0.0 0.00 1.14 0.00 90 1022.8
20260506235003 8 295 0.0 1.6 0.00 1.14 0.00 89 1022.8
20260506234503 8 353 0.0 1.6 0.00 1.14 0.00 90 1022.7
20260506234003 8 55 0.0 1.6 0.00 1.14 0.00 90 1022.5
20260506233503 8 349 0.0 1.6 0.00 1.14 0.00 91 1022.6
20260506233003 8 0 0.0 0.0 0.00 1.14 0.00 92 1022.7
20260506232503 8 303 0.0 1.6 0.00 1.14 0.00 92 1022.7
20260506232214 8 303 0.0 1.6 0.00 1.14 0.00 92 1022.6
20260506231503 8 341 0.0 1.6 0.00 1.14 0.00 92 1022.6
20260506231214 8 26 0.0 1.6 0.00 1.14 0.00 92 1022.7
20260506230503 8 54 0.0 1.6 0.00 1.14 0.00 91 1022.5
20260506230003 8 57 0.0 1.6 0.00 1.14 0.00 91 1022.5
20260506225713 8 57 0.0 1.6 0.00 1.14 0.00 92 1022.4
20260506225003 8 294 0.0 1.6 0.00 1.14 0.00 91 1022.6
20260506224503 8 352 0.0 1.6 0.00 1.14 0.00 92 1022.4
20260506224214 9 56 0.0 1.6 0.00 1.14 0.00 91 1022.3
20260506223503 9 64 0.0 1.6 0.00 1.14 0.00 91 1022.2
20260506223003 9 0 0.0 0.0 0.00 1.14 0.00 91 1022.2
20260506222503 9 0 0.0 0.0 0.00 1.14 0.00 91 1022.1
20260506222003 9 61 0.0 1.6 0.00 1.14 0.00 91 1021.9
20260506221504 9 64 0.0 3.2 0.00 1.14 0.00 91 1022.1
20260506221003 9 23 0.0 3.2 0.00 1.14 0.00 91 1022.0
20260506220503 9 297 0.0 3.2 0.00 1.14 0.00 91 1021.9
20260506220003 9 22 1.6 3.2 0.00 1.14 0.00 90 1021.7
20260506215503 10 67 1.6 3.2 0.00 1.14 1.14 91 1021.8
20260506215003 10 69 0.0 3.2 0.00 1.14 1.14 90 1021.5
20260506214503 10 0 0.0 0.0 0.00 1.14 1.14 88 1021.6
20260506214003 10 0 0.0 0.0 0.00 1.14 1.14 87 1021.6
20260506213503 10 0 0.0 0.0 0.00 1.14 1.14 87 1021.7
20260506213213 10 0 0.0 0.0 0.00 1.14 1.14 86 1021.5
20260506212714 10 33 0.0 1.6 0.00 1.14 1.14 88 1021.5
20260506212003 10 67 1.6 3.2 0.00 1.14 1.14 88 1021.6
20260506211503 10 68 1.6 3.2 0.00 1.14 1.14 90 1021.5
20260506211003 10 67 0.0 1.6 0.00 1.14 1.14 89 1021.4
20260506210714 11 68 0.0 1.6 0.00 1.14 1.14 89 1021.2
20260506210004 11 63 0.0 1.6 0.00 1.14 1.14 85 1021.2
20260506205503 11 63 0.0 1.6 0.00 1.14 1.14 86 1021.1
20260506205003 11 64 0.0 1.6 0.00 1.14 1.14 88 1020.9
20260506204503 11 58 0.0 3.2 0.00 1.14 1.14 87 1021.0
20260506204003 11 341 1.6 4.8 0.00 1.14 1.14 86 1021.2
20260506203503 11 303 0.0 4.8 0.00 1.14 1.14 81 1021.1
20260506203003 11 0 0.0 0.0 0.00 1.14 1.14 88 1021.0
20260506202503 11 70 0.0 3.2 0.00 1.14 1.14 87 1020.6
20260506202003 11 69 0.0 3.2 0.00 1.14 1.14 88 1020.7
20260506201503 12 65 0.0 1.6 0.00 1.14 1.14 87 1020.4
20260506201004 12 67 0.0 3.2 0.00 1.14 1.14 88 1020.4
20260506200503 12 67 1.6 3.2 0.00 1.14 1.14 88 1020.2
20260506200213 12 66 0.0 3.2 0.00 1.14 1.14 88 1019.9
20260506195504 12 307 0.0 1.6 0.00 1.14 1.14 85 1019.8
20260506195003 12 318 0.0 1.6 0.00 1.14 1.14 86 1019.7
20260506194503 12 72 1.6 4.8 0.00 1.14 1.14 86 1019.6
20260506194003 12 75 1.6 4.8 0.00 1.14 1.14 86 1019.3
20260506193503 13 65 0.0 3.2 0.00 1.14 1.14 85 1019.2
20260506193003 13 338 0.0 1.6 0.00 1.14 1.14 85 1018.9
20260506192504 13 43 0.0 4.8 0.00 1.14 1.14 85 1018.8
20260506192217 13 62 1.6 4.8 0.00 1.14 1.14 85 1018.6
20260506191713 13 63 0.0 4.8 0.00 1.14 1.14 84 1018.5
20260506191003 13 83 0.0 3.2 0.00 1.14 1.14 81 1018.3
20260506190503 14 80 1.6 4.8 0.00 1.14 1.14 80 1018.3
20260506190003 13 75 1.6 6.4 0.00 1.14 1.14 80 1018.1
20260506185713 13 82 1.6 6.4 0.00 1.14 1.14 80 1017.9
20260506185003 14 97 1.6 3.2 0.00 1.14 1.14 78 1017.6
20260506184713 14 82 1.6 3.2 0.00 1.14 1.14 78 1017.7
20260506184004 14 75 1.6 3.2 0.00 1.14 1.14 78 1017.3
20260506183503 14 97 1.6 3.2 0.00 1.14 1.14 76 1017.3
20260506183003 14 128 1.6 3.2 0.00 1.14 1.14 77 1017.2
20260506182503 15 133 1.6 3.2 0.00 1.14 1.14 78 1017.0
20260506182214 15 143 0.0 3.2 0.00 1.14 1.14 77 1016.8
20260506181503 15 138 0.0 1.6 0.00 1.14 1.14 75 1016.6
20260506181003 15 121 0.0 1.6 0.00 1.14 1.14 74 1016.5
20260506180503 15 135 0.0 1.6 0.00 1.14 1.14 76 1016.2
20260506180005 16 163 0.0 1.6 0.00 1.14 1.14 77 1016.1
20260506175503 16 131 0.0 3.2 0.00 1.14 1.14 77 1015.9
20260506175003 16 131 0.0 3.2 0.00 1.14 1.14 76 1015.7
20260506174503 16 0 0.0 0.0 0.00 1.14 1.14 76 1015.7
20260506174003 16 293 0.0 3.2 0.00 1.14 1.14 73 1015.5
20260506173503 16 295 0.0 3.2 0.00 1.14 1.14 73 1015.3
20260506173003 17 298 0.0 3.2 0.00 1.14 1.14 72 1015.5
20260506172503 17 291 1.6 3.2 0.00 1.14 1.14 71 1015.2
20260506172003 17 296 1.6 3.2 0.00 1.14 1.14 70 1015.5
20260506171712 17 306 0.0 1.6 0.00 1.14 1.14 70 1015.2
20260506171003 17 291 0.0 3.2 0.00 1.14 1.14 70 1015.2
20260506170503 17 290 1.6 4.8 0.00 1.14 1.14 69 1015.2
20260506170003 17 288 3.2 4.8 0.00 1.14 1.14 70 1015.5
20260506165503 17 288 3.2 4.8 0.00 1.14 1.14 70 1015.4
20260506165003 17 288 1.6 4.8 0.00 1.14 1.14 70 1015.0
20260506164503 19 272 1.6 4.8 0.00 1.14 1.14 65 1014.4
20260506164213 19 244 1.6 4.8 0.00 1.14 1.14 63 1014.4
20260506163712 19 289 1.6 6.4 0.00 1.14 1.14 61 1014.2
20260506163003 19 287 3.2 9.7 0.00 1.14 1.14 62 1014.5
20260506162503 18 287 1.6 9.7 0.00 1.14 1.14 63 1014.6
20260506162003 19 285 1.6 4.8 0.00 1.14 1.14 61 1014.3
20260506161503 19 293 1.6 3.2 0.00 1.14 1.14 63 1014.4
20260506161003 18 282 1.6 4.8 0.00 1.14 1.14 63 1014.4
20260506160503 18 280 1.6 4.8 0.00 1.14 1.14 63 1014.5
20260506160003 17 261 1.6 4.8 0.00 1.14 1.14 65 1014.8
20260506155503 17 181 1.6 4.8 0.00 1.14 1.14 65 1015.0
20260506155213 17 177 1.6 4.8 0.00 1.14 1.14 66 1014.8
20260506154504 18 231 1.6 4.8 0.00 1.14 1.14 65 1014.8
20260506154003 18 116 0.0 3.2 0.00 1.14 1.14 65 1014.7
20260506153503 18 127 0.0 3.2 0.00 1.14 1.14 67 1014.9
20260506153003 18 177 1.6 6.4 0.00 1.14 1.14 67 1014.9
20260506152503 18 251 1.6 6.4 0.00 1.14 1.14 67 1014.9
20260506152213 18 306 1.6 4.8 0.00 1.14 1.14 65 1015.0
20260506151714 18 326 1.6 4.8 0.00 1.14 1.14 64 1015.0
20260506151003 18 236 1.6 4.8 0.00 1.14 1.14 63 1014.8
20260506150503 17 92 1.6 4.8 0.00 1.14 1.14 63 1014.9
20260506150004 18 73 1.6 9.7 0.00 1.14 1.14 63 1014.8
20260506145503 17 74 3.2 11.3 0.00 1.14 1.14 64 1014.9
20260506145003 18 77 3.2 14.5 0.00 1.14 1.14 65 1014.9
20260506144503 18 79 1.6 14.5 0.00 1.14 1.14 64 1014.8
20260506144003 18 103 1.6 6.4 0.00 1.14 1.14 63 1014.9
20260506143503 18 146 1.6 6.4 0.00 1.14 1.14 64 1014.8
20260506143003 19 273 3.2 12.9 0.00 1.14 1.14 64 1014.5
20260506142503 19 221 4.8 12.9 0.00 1.14 1.14 63 1014.4
20260506142003 19 178 3.2 9.7 0.00 1.14 1.14 63 1014.7
20260506141713 20 250 3.2 14.5 0.00 1.14 1.14 63 1014.3
20260506141003 19 255 4.8 14.5 0.00 1.14 1.14 63 1014.6
20260506140503 19 156 3.2 6.4 0.00 1.14 1.14 59 1014.7
20260506140003 20 209 3.2 9.7 0.00 1.14 1.14 61 1014.5
20260506135503 20 235 3.2 9.7 0.00 1.14 1.14 63 1014.4
20260506135003 19 264 3.2 9.7 0.00 1.14 1.14 63 1014.8
20260506134503 19 284 3.2 9.7 0.00 1.14 1.14 61 1014.9
20260506134003 20 215 1.6 6.4 0.00 1.14 1.14 62 1014.8
20260506133503 19 129 3.2 12.9 0.00 1.14 1.14 64 1015.0
20260506133214 18 157 4.8 12.9 0.00 1.14 1.14 65 1015.0
20260506132503 18 187 4.8 11.3 0.00 1.14 1.14 66 1014.9
20260506132003 18 148 4.8 11.3 0.00 1.14 1.14 65 1015.1
20260506131503 18 165 4.8 11.3 0.00 1.14 1.14 66 1015.1
20260506131003 18 185 3.2 11.3 0.00 1.14 1.14 66 1015.2
20260506130503 18 192 3.2 11.3 0.00 1.14 1.14 66 1015.4
20260506130003 17 221 4.8 12.9 0.00 1.14 1.14 67 1015.5
20260506125503 17 227 4.8 12.9 0.00 1.14 1.14 69 1015.3
20260506125003 17 167 4.8 11.3 0.00 1.14 1.14 70 1015.4
20260506124503 17 152 3.2 9.7 0.00 1.14 1.14 70 1015.3
20260506124214 17 171 1.6 6.4 0.00 1.14 1.14 68 1015.3
20260506123503 17 239 1.6 6.4 0.00 1.14 1.14 70 1015.3
20260506123214 17 246 1.6 6.4 0.00 1.14 1.14 70 1015.5
20260506122503 17 275 1.6 6.4 0.00 1.14 1.14 68 1015.3
20260506122003 17 57 3.2 9.7 0.00 1.14 1.14 68 1015.1
20260506121503 18 64 3.2 9.7 0.00 1.14 1.14 68 1014.9
20260506121214 18 69 3.2 11.3 0.00 1.14 1.14 68 1015.1
20260506120713 17 76 4.8 11.3 0.00 1.14 1.14 69 1015.3
20260506120003 18 75 3.2 11.3 0.00 1.14 1.14 68 1014.9
20260506115503 18 97 1.6 9.7 0.00 1.14 1.14 67 1014.9
20260506115003 18 21 1.6 6.4 0.00 1.14 1.14 66 1015.0
20260506114503 18 55 1.6 4.8 0.00 1.14 1.14 66 1015.1
20260506114213 17 24 1.6 4.8 0.00 1.14 1.14 67 1015.1
20260506113503 18 351 1.6 9.7 0.00 1.14 1.14 65 1015.2
20260506113003 17 97 1.6 9.7 0.00 1.14 1.14 67 1015.3
20260506112503 17 101 3.2 9.7 0.00 1.14 1.14 70 1015.6
20260506112213 17 75 1.6 9.7 0.00 1.14 1.14 67 1015.4
20260506111712 17 68 3.2 9.7 0.00 1.14 1.14 68 1015.2
20260506111003 17 76 1.6 9.7 0.00 1.14 1.14 70 1015.6
20260506110503 17 95 1.6 9.7 0.00 1.14 1.14 71 1015.5
20260506110003 16 117 1.6 6.4 0.00 1.14 1.14 73 1015.8
20260506105503 16 93 3.2 12.9 0.00 1.14 1.14 73 1015.9
20260506105003 16 68 1.6 12.9 0.00 1.14 1.14 72 1015.9
20260506104503 17 102 1.6 6.4 0.00 1.14 1.14 71 1015.9
20260506104003 16 131 3.2 12.9 0.00 1.14 1.14 70 1015.9
20260506103503 16 153 3.2 12.9 0.00 1.14 1.14 71 1016.4
20260506103003 16 156 3.2 6.4 0.00 1.14 1.14 70 1016.4
20260506102503 16 183 3.2 9.7 0.00 1.14 1.14 69 1016.1
20260506102003 16 176 3.2 9.7 0.00 1.14 1.14 69 1016.3
20260506101503 15 140 1.6 9.7 0.00 1.14 1.14 72 1016.3
20260506101003 16 130 1.6 3.2 0.00 1.14 1.14 71 1016.2
20260506100714 16 125 1.6 3.2 0.00 1.14 1.14 69 1016.1
20260506100004 15 141 1.6 6.4 0.00 1.14 1.14 70 1016.3
20260506095503 16 143 3.2 6.4 0.00 1.14 1.14 71 1016.3
20260506095003 15 148 3.2 6.4 0.00 1.14 1.14 68 1016.4
20260506094503 15 134 3.2 9.7 0.00 1.14 1.14 70 1016.8
20260506094003 16 124 3.2 9.7 0.00 1.14 1.14 68 1016.4
20260506093503 16 126 1.6 6.4 0.00 1.14 1.14 70 1016.5
20260506093004 15 137 1.6 6.4 0.00 1.14 1.14 75 1016.6
20260506092503 15 144 1.6 6.4 0.00 1.14 1.14 75 1016.7
20260506092008 15 154 1.6 4.8 0.00 1.14 1.14 75 1016.6
20260506091713 15 110 1.6 4.8 0.00 1.14 1.14 72 1016.8
20260506091003 15 70 1.6 4.8 0.00 1.14 1.14 73 1016.9
20260506090503 15 74 1.6 6.4 0.00 1.14 1.14 72 1016.8
20260506090003 15 68 1.6 6.4 0.00 1.14 1.14 75 1016.7
20260506085503 15 68 1.6 4.8 0.00 1.14 1.14 78 1017.1
20260506085003 14 77 3.2 6.4 0.00 1.14 1.14 76 1017.0
20260506084503 15 69 3.2 6.4 0.00 1.14 1.14 77 1016.8
20260506084212 15 64 1.6 6.4 0.00 1.14 1.14 74 1016.7
20260506083503 17 342 0.0 1.6 0.00 1.14 1.14 65 1016.3
20260506083212 16 24 0.0 3.2 0.00 1.14 1.14 66 1016.4
20260506082713 16 43 1.6 3.2 0.00 1.14 1.14 69 1016.4
20260506082003 16 47 1.6 6.4 0.00 1.14 1.14 67 1016.8
20260506081503 15 355 1.6 3.2 0.00 1.14 1.14 72 1016.7
20260506081003 15 322 1.6 3.2 0.00 1.14 1.14 71 1016.7
20260506080503 15 358 1.6 4.8 0.00 1.14 1.14 72 1017.0